Location: Curupao
(10.4996°N, 66.6442°W)
Time: 11:55:07
(UTC+00:00)

CSL-04 DEB - Pass Details

Date: 23 May 2024
Orbit: 515 x 587 km, 98.7° (Epoch: 20 June)

Event Time Altitude Azimuth Distance (km) Brightness Sun altitude
Rises 08:26:45 0° 7° (N) 2,674 8.3 -22.6°
Reaches altitude 10° 08:28:53 10° 4° (N) 1,773 7.3 -22.1°
Enters shadow 08:32:28 62° 301° (WNW) 589 4.2 -21.3°
